Weather History for KAFW - March, 2013

Change the Weather History Date:

Monday, March 4, 2013

  Actual Average Record
Temperature  
Mean Temperature 71 °F -  
Max Temperature 87 °F 60 °F 87 °F (2013)
Min Temperature 53 °F 38 °F 17 °F (2002)
Cooling Degree Days 6    
Growing Degree Days 21 (Base 50)    
Moisture  
Dew Point 36 °F    
Average Humidity 35    
Maximum Humidity 61    
Minimum Humidity 12    
Precipitation  
Precipitation 0.00 in - - ()
Sea Level Pressure  
Sea Level Pressure 29.64 in    
Wind  
Wind Speed 15 mph (SSW)    
Max Wind Speed 24 mph    
Max Gust Speed 34 mph    
Visibility 10 miles    
Events      
Averages and records for this station are not official NWS values.
T = Trace of Precipitation, MM = Missing Value Source: NWS Daily Summary

Daily Weather History Graph

Daily Weather History Graph

Search for Another Location

Airport or City:

Trip Planner

Search our weather history database for the weather conditions in past years. The results will help you decide how hot, cold, wet, or windy it might be!

Date:

Astronomy

Mar. 04, 2013 Rise Set
Actual Time 6:53 AM CST 6:29 PM CST
Civil Twilight 6:28 AM CST 6:53 PM CST
Nautical Twilight 5:59 AM CST 7:22 PM CST
Astronomical Twilight 5:31 AM CST 7:51 PM CST
Moon 12:51 AM CST (3/4) 11:25 AM CST (3/4)
Length of Visible Light 12h 25m
Length of Day
11h 35m
Waning Gibbous, 52% of the Moon is Illuminated
Mar 4
Waning Gibbous
Mar 4
Last Quarter
Mar 11
New
Mar 19
First Quarter
Mar 27
Full

Hourly Weather History & Observations

Time (CST) Temp. Dew Point Humidity Pressure Visibility Wind Dir Wind Speed Gust Speed Precip Events Conditions
12:53 AM 59.0 °F 39.0 °F 48% 29.70 in 10.0 mi South 20.7 mph 27.6 mph N/A   Clear
1:53 AM 57.9 °F 39.9 °F 51% 29.70 in 10.0 mi South 18.4 mph 28.8 mph N/A   Clear
2:53 AM 55.9 °F 39.9 °F 55% 29.68 in 10.0 mi South 18.4 mph 28.8 mph N/A   Clear
3:53 AM 55.0 °F 39.0 °F 55% 29.68 in 10.0 mi South 15.0 mph 26.5 mph N/A   Clear
4:53 AM 55.9 °F 39.0 °F 53% 29.68 in 10.0 mi South 13.8 mph 21.9 mph N/A   Clear
5:53 AM 55.0 °F 39.0 °F 55% 29.67 in 10.0 mi South 11.5 mph 20.7 mph N/A   Clear
6:53 AM 55.0 °F 39.9 °F 57% 29.66 in 10.0 mi South 13.8 mph - N/A   Clear
7:53 AM 55.9 °F 39.9 °F 55% 29.67 in 10.0 mi South 10.4 mph 18.4 mph N/A   Clear
8:53 AM 61.0 °F 41.0 °F 48% 29.67 in 10.0 mi SSW 10.4 mph 21.9 mph N/A   Clear
9:53 AM 66.9 °F 37.9 °F 34% 29.65 in 10.0 mi SW 16.1 mph 21.9 mph N/A   Clear
10:53 AM 73.9 °F 35.1 °F 24% 29.65 in 10.0 mi SW 9.2 mph 18.4 mph N/A   Clear
11:53 AM 80.1 °F 33.1 °F 18% 29.64 in 10.0 mi WSW 13.8 mph 21.9 mph N/A   Clear
12:53 PM 82.9 °F 30.0 °F 15% 29.60 in 10.0 mi SW 15.0 mph 24.2 mph N/A   Clear
1:53 PM 84.9 °F 30.0 °F 14% 29.57 in 10.0 mi WSW 15.0 mph 24.2 mph N/A   Clear
2:53 PM 87.1 °F 28.9 °F 12% 29.56 in 10.0 mi SW 13.8 mph 20.7 mph N/A   Clear
3:53 PM 87.1 °F 30.0 °F 13% 29.55 in 10.0 mi SW 9.2 mph 18.4 mph N/A   Clear
4:53 PM 82.9 °F 32.0 °F 16% 29.55 in 10.0 mi South 10.4 mph 17.3 mph N/A   Partly Cloudy
5:53 PM 80.1 °F 33.1 °F 18% 29.56 in 10.0 mi WSW 5.8 mph - N/A   Partly Cloudy
6:53 PM 73.9 °F 32.0 °F 21% 29.58 in 10.0 mi SSW 8.1 mph - N/A   Partly Cloudy
7:53 PM 72.0 °F 30.9 °F 22% 29.60 in 10.0 mi SSW 6.9 mph - N/A   Clear
8:53 PM 64.0 °F 33.1 °F 31% 29.62 in 10.0 mi South 4.6 mph - N/A   Clear
9:53 PM 68.0 °F 37.9 °F 33% 29.66 in 10.0 mi North 11.5 mph - N/A   Clear
10:53 PM 64.0 °F 41.0 °F 43% 29.73 in 10.0 mi North 24.2 mph 32.2 mph N/A   Clear
11:53 PM 53.1 °F 39.9 °F 61% 29.82 in 10.0 mi NNW 23.0 mph 34.5 mph N/A   Clear